Starlink 1789

operational
NORAD ID: 46690 Int'l Des: 2020-073 Owner: SPXS Country: US Constellation: starlink
LEOCIRCULAR

About Starlink 1789

Description loading...

Live Position

Loading 3D Globe...

Upcoming Passes

Altitude History

Altitude vs Time

uPlot chart will show altitude changes over time

Two-Line Element Set

1 46690U 20073W 25297.91671296 .00195004 00000-0 44430-2 0 9999
2 46690 53.0514 113.1583 0006565 202.7169 161.7068 15.41698412 5900
Epoch: Oct 24, 2025 • Age: 7 hours

Current Status

Altitude 457.1 km
Velocity 7.64 km/s
Sub-Earth Point -53.08°S, 97.98°W
Launch Date Oct 18, 2020
Age 5 years
Type internet

Technical Details

Classification Payload
Mass 260.00 kg
Dry Mass 248.00 kg
Total Mass 260.00 kg
Length 0.20 m
Diameter 2.80 m
Span 9.00 m
Shape Box + pan
Manufacturer SPXS
Bus Type Starlink
Phase Status In Orbit
Owner/State SPXS/US

Large Constellations

Loading constellations...